| time (UTC) | temp C | wind direction | speed KPH | gust KPH | rain 1hr cm | rain 24hr cm | rain mn cm | humidity % | barometer mb |
| 20260903095136 | 25 | 116 | 0.0 | 0.0 | 0.00 | 0.00 | 0.00 | 94 | 1013.4 |
| 20260903094137 | 25 | 116 | 0.0 | 0.0 | 0.00 | 0.00 | 0.00 | 94 | 1013.3 |
| 20260903093136 | 25 | 116 | 0.0 | 1.6 | 0.00 | 0.00 | 0.00 | 94 | 1013.2 |
| 20260903092136 | 25 | 116 | 0.0 | 0.0 | 0.00 | 0.00 | 0.00 | 94 | 1013.2 |
| 20260903091610 | 25 | 116 | 0.0 | 0.0 | 0.00 | 0.00 | 0.00 | 94 | 1013.2 |
| 20260903090136 | 25 | 116 | 0.0 | 0.0 | 0.00 | 0.00 | 0.00 | 94 | 1013.1 |
| 20260903085617 | 25 | 116 | 0.0 | 1.6 | 0.00 | 0.00 | 0.00 | 94 | 1013.1 |
| 20260903084131 | 25 | 116 | 0.0 | 0.0 | 0.00 | 0.00 | 0.00 | 94 | 1013.1 |
| 20260903083133 | 25 | 116 | 0.0 | 0.0 | 0.00 | 0.00 | 0.00 | 94 | 1013.2 |
| 20260903082132 | 25 | 116 | 0.0 | 0.0 | 0.00 | 0.00 | 0.00 | 93 | 1013.1 |
| 20260903081133 | 25 | 116 | 0.0 | 0.0 | 0.00 | 0.00 | 0.00 | 93 | 1013.1 |
| 20260903080119 | 25 | 116 | 0.0 | 0.0 | 0.00 | 0.00 | 0.00 | 93 | 1013.2 |
| 20260903075604 | 25 | 116 | 0.0 | 0.0 | 0.00 | 0.00 | 0.00 | 93 | 1013.2 |
| 20260903074117 | 25 | 116 | 0.0 | 0.0 | 0.00 | 0.00 | 0.00 | 93 | 1013.2 |
| 20260903074044 | 25 | 116 | 0.0 | 0.0 | 0.00 | 0.00 | 0.00 | 93 | 1013.2 |
| 20260903072122 | 25 | 116 | 0.0 | 0.0 | 0.00 | 0.00 | 0.00 | 93 | 1013.5 |
| 20260903071103 | 25 | 116 | 0.0 | 3.2 | 0.00 | 0.00 | 0.00 | 93 | 1013.6 |
| 20260903070541 | 25 | 116 | 1.6 | 4.8 | 0.00 | 0.00 | 0.00 | 93 | 1013.5 |
| 20260903065104 | 26 | 116 | 1.6 | 3.2 | 0.00 | 0.00 | 0.00 | 93 | 1013.6 |
| 20260903064105 | 26 | 116 | 1.6 | 3.2 | 0.00 | 0.00 | 0.00 | 92 | 1013.6 |
| 20260903063106 | 26 | 116 | 1.6 | 4.8 | 0.00 | 0.00 | 0.00 | 92 | 1013.5 |
| 20260903062055 | 26 | 116 | 0.0 | 0.0 | 0.00 | 0.00 | 0.00 | 92 | 1013.6 |
| 20260903061054 | 26 | 116 | 0.0 | 0.0 | 0.00 | 0.00 | 0.00 | 92 | 1013.7 |
| 20260903060053 | 26 | 116 | 0.0 | 0.0 | 0.00 | 0.00 | 0.00 | 92 | 1013.8 |
| 20260903060012 | 26 | 116 | 0.0 | 3.2 | 0.00 | 0.00 | 0.00 | 92 | 1013.9 |
| 20260903054055 | 26 | 116 | 0.0 | 3.2 | 0.00 | 0.00 | 0.00 | 91 | 1013.9 |
| 20260903053052 | 26 | 116 | 0.0 | 1.6 | 0.00 | 0.00 | 0.00 | 91 | 1014.0 |
| 20260903052526 | 26 | 116 | 0.0 | 3.2 | 0.00 | 0.00 | 0.00 | 91 | 1014.1 |
| 20260903051051 | 26 | 116 | 0.0 | 4.8 | 0.00 | 0.00 | 0.00 | 91 | 1014.2 |
| 20260903050053 | 26 | 116 | 1.6 | 4.8 | 0.00 | 0.00 | 0.00 | 91 | 1014.3 |
| 20260903045046 | 26 | 116 | 1.6 | 4.8 | 0.00 | 0.00 | 0.00 | 90 | 1014.5 |
| 20260903044046 | 26 | 116 | 3.2 | 6.4 | 0.00 | 0.00 | 0.00 | 90 | 1014.6 |
| 20260903043046 | 26 | 101 | 4.8 | 11.3 | 0.00 | 0.00 | 0.00 | 90 | 1014.7 |
| 20260903042045 | 26 | 116 | 3.2 | 9.7 | 0.00 | 0.00 | 0.00 | 90 | 1014.8 |
| 20260903041046 | 26 | 103 | 3.2 | 9.7 | 0.00 | 0.00 | 0.00 | 90 | 1015.0 |
| 20260903040041 | 26 | 122 | 1.6 | 6.4 | 0.00 | 0.00 | 0.00 | 90 | 1014.8 |
| 20260903035040 | 27 | 122 | 1.6 | 6.4 | 0.00 | 0.00 | 0.00 | 89 | 1014.9 |
| 20260903034040 | 27 | 122 | 3.2 | 12.9 | 0.00 | 0.00 | 0.00 | 89 | 1014.8 |
| 20260903033040 | 27 | 117 | 3.2 | 9.7 | 0.00 | 0.00 | 0.00 | 89 | 1014.9 |
| 20260903032515 | 27 | 97 | 3.2 | 9.7 | 0.00 | 0.00 | 0.00 | 88 | 1015.0 |
| 20260903031029 | 27 | 103 | 3.2 | 12.9 | 0.00 | 0.00 | 0.00 | 88 | 1014.8 |
| 20260903030027 | 27 | 96 | 1.6 | 6.4 | 0.00 | 0.00 | 0.00 | 88 | 1015.1 |
| 20260903025028 | 27 | 96 | 1.6 | 3.2 | 0.00 | 0.00 | 0.00 | 87 | 1015.1 |
| 20260903024029 | 27 | 96 | 0.0 | 3.2 | 0.00 | 0.00 | 0.00 | 87 | 1015.2 |
| 20260903023027 | 27 | 96 | 1.6 | 8.0 | 0.00 | 0.00 | 0.00 | 87 | 1014.9 |
| 20260903022027 | 27 | 99 | 3.2 | 9.7 | 0.00 | 0.00 | 0.00 | 87 | 1014.9 |
| 20260903021508 | 27 | 140 | 4.8 | 12.9 | 0.00 | 0.00 | 0.00 | 86 | 1014.8 |
| 20260903020518 | 27 | 69 | 3.2 | 8.0 | 0.00 | 0.00 | 0.00 | 86 | 1014.7 |
| 20260903015023 | 27 | 94 | 4.8 | 14.5 | 0.00 | 0.00 | 0.00 | 86 | 1014.8 |
| 20260903014019 | 27 | 79 | 3.2 | 11.3 | 0.00 | 0.00 | 0.00 | 86 | 1014.7 |
| 20260903013021 | 27 | 59 | 3.2 | 9.7 | 0.00 | 0.00 | 0.00 | 86 | 1014.5 |
| 20260903012509 | 27 | 85 | 4.8 | 12.9 | 0.00 | 0.00 | 0.00 | 85 | 1014.4 |
| 20260903011020 | 27 | 79 | 4.8 | 14.5 | 0.00 | 0.00 | 0.00 | 85 | 1014.3 |
| 20260903010019 | 28 | 88 | 4.8 | 11.3 | 0.00 | 0.00 | 0.00 | 84 | 1014.4 |
| 20260903005021 | 28 | 59 | 3.2 | 11.3 | 0.00 | 0.00 | 0.00 | 84 | 1014.1 |
| 20260903004019 | 28 | 59 | 4.8 | 9.7 | 0.00 | 0.00 | 0.00 | 84 | 1014.0 |
| 20260903003017 | 28 | 40 | 6.4 | 11.3 | 0.00 | 0.00 | 0.00 | 84 | 1013.8 |
| 20260903002018 | 28 | 39 | 3.2 | 9.7 | 0.00 | 0.00 | 0.00 | 84 | 1013.8 |
| 20260903001017 | 28 | 79 | 3.2 | 9.7 | 0.00 | 0.00 | 0.00 | 84 | 1014.0 |
| 20260903000017 | 28 | 38 | 3.2 | 8.0 | 0.00 | 0.00 | 0.00 | 85 | 1014.1 |
| 20260902235017 | 28 | 355 | 3.2 | 6.4 | 0.00 | 0.00 | 0.00 | 85 | 1014.1 |
| 20260902234016 | 28 | 344 | 4.8 | 8.0 | 0.00 | 0.00 | 0.00 | 85 | 1014.1 |
| 20260902233017 | 28 | 79 | 1.6 | 4.8 | 0.00 | 0.00 | 0.00 | 84 | 1013.8 |
| 20260902232017 | 29 | 81 | 1.6 | 6.4 | 0.00 | 0.00 | 0.00 | 83 | 1013.8 |
| 20260902231017 | 29 | 81 | 3.2 | 8.0 | 0.00 | 0.00 | 0.00 | 83 | 1013.6 |
| 20260902230017 | 29 | 80 | 3.2 | 6.4 | 0.00 | 0.00 | 0.00 | 82 | 1013.5 |
| 20260902225018 | 29 | 15 | 3.2 | 6.4 | 0.00 | 0.00 | 0.00 | 82 | 1013.2 |
| 20260902224451 | 29 | 85 | 3.2 | 8.0 | 0.00 | 0.00 | 0.00 | 81 | 1013.4 |
| 20260902223454 | 29 | 24 | 3.2 | 8.0 | 0.00 | 0.00 | 0.00 | 80 | 1013.5 |
| 20260902222014 | 30 | 29 | 3.2 | 11.3 | 0.00 | 0.00 | 0.00 | 79 | 1013.5 |
| 20260902221010 | 30 | 19 | 3.2 | 9.7 | 0.00 | 0.00 | 0.00 | 78 | 1013.5 |
| 20260902220012 | 30 | 71 | 3.2 | 17.7 | 0.00 | 0.00 | 0.00 | 78 | 1013.1 |
| 20260902215002 | 30 | 69 | 6.4 | 16.1 | 0.00 | 0.00 | 0.00 | 76 | 1013.0 |
| 20260902214000 | 30 | 84 | 4.8 | 14.5 | 0.00 | 0.00 | 0.00 | 74 | 1012.8 |
| 20260902213000 | 31 | 67 | 8.0 | 24.1 | 0.00 | 0.00 | 0.00 | 73 | 1013.2 |
| 20260902212913 | 31 | 96 | 9.7 | 20.9 | 0.00 | 0.00 | 0.00 | 72 | 1013.2 |
| 20260902211431 | 32 | 88 | 8.0 | 17.7 | 0.00 | 0.00 | 0.00 | 74 | 1013.5 |
| 20260902210422 | 32 | 73 | 9.7 | 19.3 | 0.00 | 0.00 | 0.00 | 74 | 1013.3 |
| 20260902204941 | 31 | 79 | 8.0 | 20.9 | 0.00 | 0.00 | 0.00 | 74 | 1013.1 |
| 20260902203930 | 32 | 42 | 8.0 | 17.7 | 0.00 | 0.00 | 0.00 | 72 | 1013.3 |
| 20260902203416 | 32 | 40 | 9.7 | 17.7 | 0.00 | 0.00 | 0.00 | 73 | 1013.1 |
| 20260902201933 | 32 | 39 | 8.0 | 17.7 | 0.00 | 0.00 | 0.00 | 70 | 1013.2 |
| 20260902200931 | 32 | 67 | 9.7 | 20.9 | 0.00 | 0.00 | 0.00 | 68 | 1013.3 |
| 20260902195933 | 33 | 96 | 8.0 | 20.9 | 0.00 | 0.00 | 0.00 | 68 | 1013.2 |
| 20260902194930 | 33 | 100 | 8.0 | 17.7 | 0.00 | 0.00 | 0.00 | 71 | 1013.2 |
| 20260902193931 | 32 | 131 | 6.4 | 17.7 | 0.00 | 0.00 | 0.00 | 73 | 1013.3 |
| 20260902192930 | 32 | 37 | 6.4 | 14.5 | 0.00 | 0.00 | 0.00 | 74 | 1013.5 |
| 20260902191933 | 31 | 58 | 6.4 | 17.7 | 0.00 | 0.00 | 0.00 | 75 | 1013.6 |
| 20260902190929 | 31 | 76 | 8.0 | 19.3 | 0.00 | 0.03 | 0.00 | 71 | 1013.8 |
| 20260902190424 | 33 | 46 | 4.8 | 9.7 | 0.00 | 0.03 | 0.00 | 67 | 1013.8 |
| 20260902184930 | 32 | 29 | 3.2 | 8.0 | 0.00 | 0.03 | 0.00 | 70 | 1013.9 |
| 20260902183926 | 33 | 90 | 4.8 | 8.0 | 0.00 | 0.03 | 0.00 | 66 | 1014.0 |
| 20260902182926 | 34 | 344 | 6.4 | 16.1 | 0.00 | 0.03 | 0.00 | 64 | 1014.1 |
| 20260902181928 | 33 | 323 | 4.8 | 16.1 | 0.00 | 0.03 | 0.00 | 66 | 1014.1 |
| 20260902180925 | 33 | 283 | 4.8 | 12.9 | 0.00 | 0.03 | 0.00 | 66 | 1014.4 |
| 20260902175924 | 33 | 300 | 3.2 | 12.9 | 0.00 | 0.03 | 0.00 | 65 | 1014.5 |
| 20260902175422 | 33 | 325 | 8.0 | 16.1 | 0.00 | 0.03 | 0.00 | 69 | 1014.7 |
| 20260902173924 | 33 | 350 | 4.8 | 16.1 | 0.00 | 0.03 | 0.00 | 68 | 1014.7 |
| 20260902173406 | 33 | 106 | 4.8 | 11.3 | 0.00 | 0.03 | 0.00 | 67 | 1014.8 |
| 20260902171921 | 32 | 10 | 3.2 | 8.0 | 0.00 | 0.03 | 0.00 | 72 | 1014.9 |
| 20260902170924 | 32 | 10 | 4.8 | 12.9 | 0.00 | 0.03 | 0.00 | 71 | 1015.0 |
| 20260902165922 | 32 | 344 | 3.2 | 8.0 | 0.00 | 0.03 | 0.00 | 71 | 1015.1 |
| 20260902164920 | 31 | 25 | 4.8 | 14.5 | 0.00 | 0.03 | 0.00 | 73 | 1015.4 |
| 20260902163920 | 32 | 15 | 3.2 | 12.9 | 0.00 | 0.03 | 0.00 | 72 | 1015.4 |
| 20260902162920 | 31 | 29 | 1.6 | 6.4 | 0.00 | 0.03 | 0.00 | 73 | 1015.6 |
| 20260902161918 | 30 | 339 | 6.4 | 14.5 | 0.00 | 0.03 | 0.00 | 79 | 1015.7 |
| 20260902160919 | 31 | 333 | 6.4 | 12.9 | 0.00 | 0.03 | 0.00 | 75 | 1015.8 |
| 20260902160404 | 31 | 325 | 8.0 | 16.1 | 0.00 | 0.03 | 0.00 | 77 | 1015.9 |
| 20260902155355 | 31 | 306 | 4.8 | 12.9 | 0.00 | 0.03 | 0.00 | 77 | 1016.0 |
| 20260902153919 | 31 | 21 | 4.8 | 14.5 | 0.00 | 0.03 | 0.00 | 78 | 1016.0 |
| 20260902152919 | 31 | 324 | 4.8 | 14.5 | 0.00 | 0.03 | 0.00 | 78 | 1016.2 |
| 20260902152349 | 30 | 1 | 4.8 | 11.3 | 0.00 | 0.03 | 0.00 | 82 | 1016.2 |
| 20260902150914 | 30 | 356 | 6.4 | 12.9 | 0.00 | 0.10 | 0.00 | 82 | 1016.3 |
| 20260902150410 | 30 | 5 | 6.4 | 16.1 | 0.00 | 0.33 | 0.00 | 82 | 1016.2 |
| 20260902144912 | 30 | 26 | 4.8 | 12.9 | 0.00 | 0.36 | 0.00 | 82 | 1016.1 |
| 20260902143911 | 29 | 24 | 3.2 | 11.3 | 0.00 | 0.38 | 0.00 | 84 | 1016.2 |
| 20260902142914 | 30 | 94 | 4.8 | 12.9 | 0.00 | 0.38 | 0.00 | 81 | 1016.2 |
| 20260902141910 | 29 | 354 | 1.6 | 4.8 | 0.00 | 0.38 | 0.00 | 85 | 1016.1 |
| 20260902140909 | 28 | 15 | 3.2 | 9.7 | 0.00 | 0.38 | 0.00 | 86 | 1016.1 |
| 20260902135908 | 28 | 10 | 1.6 | 4.8 | 0.00 | 0.38 | 0.00 | 89 | 1016.2 |
| 20260902135347 | 28 | 10 | 3.2 | 6.4 | 0.00 | 0.38 | 0.00 | 88 | 1016.1 |
| 20260902133904 | 28 | 10 | 3.2 | 8.0 | 0.00 | 0.38 | 0.00 | 89 | 1016.1 |
| 20260902132904 | 27 | 22 | 4.8 | 8.0 | 0.00 | 0.38 | 0.00 | 90 | 1016.2 |
| 20260902131902 | 27 | 23 | 4.8 | 12.9 | 0.00 | 0.38 | 0.00 | 91 | 1016.3 |
| 20260902130902 | 27 | 20 | 4.8 | 12.9 | 0.00 | 0.38 | 0.00 | 91 | 1016.2 |
| 20260902125901 | 27 | 20 | 6.4 | 14.5 | 0.00 | 0.38 | 0.00 | 92 | 1016.0 |
| 20260902124903 | 27 | 343 | 4.8 | 9.7 | 0.00 | 0.38 | 0.00 | 93 | 1016.1 |
| 20260902124828 | 26 | 340 | 4.8 | 9.7 | 0.00 | 0.38 | 0.00 | 94 | 1016.1 |
| 20260902122859 | 26 | 348 | 1.6 | 9.7 | 0.00 | 0.38 | 0.00 | 94 | 1016.1 |
| 20260902121858 | 26 | 341 | 1.6 | 6.4 | 0.00 | 0.38 | 0.00 | 95 | 1016.1 |
| 20260902120859 | 26 | 340 | 0.0 | 3.2 | 0.00 | 0.38 | 0.00 | 95 | 1016.1 |
| 20260902115859 | 25 | 340 | 0.0 | 3.2 | 0.00 | 0.38 | 0.00 | 95 | 1016.0 |
| 20260902114858 | 25 | 340 | 0.0 | 3.2 | 0.00 | 0.38 | 0.00 | 95 | 1015.8 |
| 20260902114334 | 25 | 340 | 0.0 | 4.8 | 0.00 | 0.38 | 0.00 | 95 | 1015.8 |
| 20260902112857 | 25 | 340 | 0.0 | 3.2 | 0.00 | 0.38 | 0.00 | 95 | 1015.7 |
| 20260902111858 | 25 | 340 | 0.0 | 3.2 | 0.00 | 0.38 | 0.00 | 94 | 1015.6 |
| 20260902110900 | 25 | 340 | 1.6 | 6.4 | 0.00 | 0.38 | 0.00 | 94 | 1015.5 |
| 20260902105844 | 25 | 340 | 3.2 | 6.4 | 0.00 | 0.38 | 0.00 | 95 | 1015.2 |
| 20260902104844 | 25 | 347 | 3.2 | 6.4 | 0.00 | 0.38 | 0.00 | 94 | 1015.2 |
| 20260902103845 | 25 | 352 | 3.2 | 8.0 | 0.00 | 0.38 | 0.00 | 95 | 1015.1 |
| 20260902103324 | 25 | 48 | 1.6 | 4.8 | 0.00 | 0.38 | 0.00 | 94 | 1015.0 |
| 20260902101845 | 25 | 100 | 1.6 | 4.8 | 0.00 | 0.38 | 0.00 | 95 | 1015.0 |
| 20260902101332 | 24 | 100 | 0.0 | 3.2 | 0.00 | 0.38 | 0.00 | 94 | 1015.0 |
| 20260902095841 | 25 | 100 | 1.6 | 4.8 | 0.00 | 0.38 | 0.00 | 94 | 1015.0 |